{"data":{"norad_id":65718,"epoch":"2026-05-25T02:44:42.224640Z","epoch_age_seconds":75322,"freshness":"FRESH","line1":"1 65718U 25214G   26145.11437760  .00001237  00000+0  17795-3 0  9992","line2":"2 65718  49.9918  52.9702 0009821 148.4938 211.6590 14.83041820 36117","mean_motion":14.8304182,"eccentricity":0.0009821,"inclination_deg":49.9918,"raan_deg":52.9702,"arg_perigee_deg":148.4938,"mean_anomaly_deg":211.659,"bstar":0.00017795,"rev_number":3611,"period_min":97.097733899372,"perigee_km":612.86638817805,"apogee_km":626.61161622157,"semimajor_km":6997.8760021998,"source":"CELESTRAK","updated_at":"2026-05-25T13:38:05.627998Z"}}